SCP
0 0 0 0 0 0 0 0 0 0 0 0 0 0 0 0 0 0 0 0 0 0 0 0 0 0 0 0 0 0 0 0 0 0 0 0 0 0 0 0 0 0 0
0 0 0 0 0 0 0 0 0 0 0 0 0 0 0 0 0 0 0 0 0 0 0 0 0 0 0 0 0 0 0 0 0 0 0 0 0 0 0 0 0 0 0
0 0 0 0 0 0 0 0 0 0 0 0 0 0 0 0 0 0 0 0 0 0 0 0 0 0 0 0 0 0 0 0 0 0 0 0 0 0 0 0 0 0 0
0 0 0 0 0 0 0 0 0 0 0 0 0 0 0 0 0 0 0 0 0 0 0 0 0 0 0 0 0 0 0 0 0 0 0 0 0 0 0 0 0 0 0
0 0 0 0 0 0 0 0 0 0 0 0 0 0 0 0 0 0 0 0 0 0 0 0 0 0 0 0 0 0 0 0 0 0 0 0 0 0 0 0 0 0 0
0 0 0 0 0 0 0 0 0 0 0 0 0 0 0 0 0 0 0 0 0 0 0 0 0 0 0 0 0 0 0 0 0 0 0 0 0 0 0 0 0 0 0
0 0 0 0 0 0 0 0 0 0 0 0 0 0 0 0 0 0 0 0 0 0 0 0 0 0 0 0 0 0 0 0 0 0 0 0 0 0 0 0 0 0 0
0 0 0 0 0 0 0 0 0 0 0 0 0 0 0 0 0 0 0 0 0 0 0 0 0 0 0 0 0 0 0 0 0 0 0 0 0 0 0 0 0 0 0
0 0 0 0 0 0 0 0 0 0 0 0 0 0 0 0 0 0 0 0 0 0 0 0 0 0 0 0 0 0 0 0 0 0 0 0 0 0 0 0 0 0 0
0 0 0 0 0 0 0 0 0 0 0 0 0 0 0 0 0 0 0 0 0 0 0 0 0 0 0 0 0 0 0 0 0 0 0 0 0 0 0 0 0 0 0
0 0 0 -0 0 0 0 0 0 0 0 0 0 0 0 0 0 0 0 0 0 0 0 0 0 0 0 0 0 0 0 0 0 0 0 0 0 0 0 0 0 0 0
0 0 0 0 0 0 0 0 0 0 0 0 0 0 0 0 0 0 0 0 0 0 0 0 0 0 0 0 0 0 0 0 0 0 0 0 0 0 0 0 0 0 0
0 0 0 0 0 0 0 0 0 0 0 0 0 0 0 0 0 0 0 0 0 0 0 0 0 0 0 0 0 0 0 0 0 0 0 0 0 0 0 0 0 0 0
0 0 0 0 0 0 0 0 0 0 0 0 0 0 0 0 0 0 0 0 0 0 0 0 0 0 0 0 0 0 0 0 0 0 0 0 0 0 0 0 0 0 0
0 0 0 0 0 0 0 0 0 0 0 0 0 0 0 0 0 0 0 0 0 0 0 0 0 0 0 0 0 0 0 0 0 0 0 0 0 0 0 0 0 0 0
0 0 0 0 0 0 0 0 0 0 0 0 0 0 0 0 -0 -0 -0 0 0 0 0 0 0 0 0 0 0 0 0 0 0 0 0 0 0 0 0 0 0 0 0
0 0 0 0 0 0 0 0 0 0 -0 -0 -0 -0 -0 -0 -0 -0 -0 0 0 0 0 0 0 0 0 0 0 0 0 0 0 0 0 0 0 0 0 0 0 0 0
0 0 0 0 0 0 0 0 0 0 0 0 -0 -0 -0 -0 -0 -0 0 0 0 0 0 0 0 0 0 0 0 0 0 0 0 0 0 0 0 0 0 0 0 0 0
0 0 0 0 0 0 0 0 0 0 0 0 0 0 0 -0 0 0 0 0 0 0 0 0 0 0 0 0 0 0 0 0 0 0 0 0 0 0 0 0 0 0 0
0 0 0 0 0 0 0 0 0 0 0 0 0 0 0 0 0 0 0 0 0 0 0 0 0 0 0 0 0 0 0 0 0 0 0 0 0 0 0 0 0 0 0
0 0 0 0 0 0 0 0 0 0 0 0 0 0 0 0 0 0 0 0 0 0 0 0 0 0 0 0 0 0 0 0 0 0 0 0 0 0 0 0 0 0 0
0 0 0 0 0 0 0 0 0 0 0 0 0 0 0 0 0 0 0 0 0 0 0 0 0 0 0 0 0 0 0 0 0 0 0 0 0 0 0 0 0 0 0
0 0 0 0 0 0 0 0 0 0 0 0 0 0 0 0 0 0 0 0 0 0 0 0 0 0 0 0 0 0 0 0 0 0 0 0 0 0 0 0 0 0 0
0 0 0 0 0 0 0 0 0 0 0 0 0 0 0 0 0 0 0 0 0 0 0 0 0 0 0 0 0 0 0 0 0 0 0 0 0 0 0 0 0 0 0
0 0 0 0 0 0 0 0 0 0 0 0 0 0 0 0 0 0 0 0 0 0 0 0 0 0 0 0 0 0 0 0 0 0 0 0 0 0 0 0 0 0 0
0 0 0 0 0 0 0 0 0 0 0 0 0 0 0 0 0 0 0 0 0 0 0 0 0 0 0 0 0 0 0 0 0 0 0 0 0 0 0 0 0 0 0
Wind_Speed_500mb
27 36 32 43 57 49 57 63 58 57 57 56 60 62 70 74 78 72 73 66 75 72 66 58 53 55 41 46 43 48 45 40 38 41 47 40 36 29 25 23 28 33 29
6 22 37 37 29 28 45 53 59 57 56 56 57 58 61 66 67 72 72 75 71 73 72 68 64 45 43 50 45 39 40 42 44 48 46 40 33 31 29 31 36 33 33
49 37 30 37 34 33 33 32 40 53 57 62 59 59 59 60 61 60 64 65 70 75 79 73 55 59 50 56 46 47 44 43 43 45 42 42 42 38 37 38 37 36 38
46 42 33 28 33 39 37 52 49 49 61 63 65 62 61 63 61 58 60 63 63 58 52 55 56 42 53 51 47 46 46 43 40 37 40 45 39 38 38 38 41 42 42
41 43 33 29 26 28 34 54 56 58 62 65 64 68 70 67 64 62 61 59 65 57 60 55 48 55 60 51 47 40 40 39 45 38 38 38 38 38 39 39 42 43 41
37 34 40 41 36 38 42 42 48 52 61 62 66 68 73 73 66 62 57 61 63 55 55 52 59 64 57 53 52 46 48 36 35 34 35 37 39 42 47 44 44 45 42
26 35 28 28 44 50 47 50 49 59 59 57 63 66 72 72 71 64 61 57 57 54 57 64 63 57 52 46 47 43 34 37 39 37 38 41 45 42 41 39 39 39 42
29 37 40 40 43 44 54 55 56 57 60 58 61 67 69 75 72 68 60 51 50 60 64 61 54 44 43 45 42 40 39 36 39 41 38 38 34 32 31 32 36 37 39
40 46 49 50 50 47 53 67 63 57 63 59 64 69 71 75 75 70 56 52 59 65 61 53 45 44 42 41 35 34 35 31 33 34 32 30 28 28 27 33 30 35 42
43 46 50 50 54 47 50 67 63 63 67 51 57 74 75 80 76 58 50 56 65 65 53 47 42 36 33 29 29 28 28 28 28 27 27 27 27 28 26 28 30 34 36
49 42 45 49 49 44 45 63 70 69 69 71 68 72 77 73 61 49 51 54 57 52 48 43 39 33 28 23 23 22 21 25 25 26 28 28 29 26 25 29 31 31 35
52 53 55 54 45 38 44 65 72 77 78 79 74 75 68 59 50 49 47 44 44 43 42 39 32 28 24 20 16 15 15 18 21 22 23 21 22 24 25 26 29 33 42
43 47 42 39 35 35 37 53 67 73 79 79 80 74 62 57 52 44 42 41 40 38 35 31 30 26 22 19 16 15 15 16 15 14 16 16 19 23 30 36 40 49 57
45 43 34 25 20 25 31 45 61 69 72 79 67 64 62 58 53 52 48 41 37 34 32 31 25 23 19 20 18 17 14 14 15 15 17 20 23 31 41 46 53 60 64
37 31 22 17 16 21 24 33 45 56 58 56 60 53 56 58 58 50 47 43 35 30 28 29 30 31 29 25 21 20 15 16 20 21 25 30 34 40 46 51 57 60 58
27 21 16 17 17 22 28 38 34 33 33 31 31 35 48 48 51 46 39 33 30 29 32 34 33 31 29 25 22 20 20 22 26 31 35 35 38 47 53 57 59 55 59
20 18 19 22 25 30 33 36 38 26 21 22 27 34 37 39 41 40 37 34 33 35 38 35 33 33 29 26 26 28 28 30 32 33 37 43 49 54 58 59 56 62 65
19 21 26 30 30 32 33 36 37 40 41 36 30 34 33 36 38 40 38 37 37 37 32 30 27 27 24 29 28 29 31 32 35 39 43 48 53 56 58 60 63 65 67
23 28 29 32 32 33 36 39 41 44 45 46 45 40 38 36 37 36 35 27 25 22 23 24 23 27 32 34 32 29 33 36 41 46 50 54 56 59 62 64 66 62 63
29 31 34 35 36 36 36 38 41 41 42 45 47 47 47 44 42 42 30 26 25 22 23 27 28 29 30 29 26 30 37 41 46 51 56 59 60 63 66 65 64 65 64
35 37 36 37 38 37 37 39 38 38 38 37 34 33 31 31 31 28 22 17 19 22 27 31 30 26 24 25 30 36 41 46 53 57 59 61 63 65 65 65 65 65 67
38 39 38 40 40 39 40 40 40 39 37 35 35 35 32 31 31 27 23 24 22 22 25 26 23 22 25 30 36 42 47 53 56 56 58 60 61 63 64 65 65 64 63
42 44 42 41 40 39 41 40 38 37 35 34 36 38 36 32 29 29 29 27 27 26 26 26 25 27 34 38 41 47 53 54 54 54 52 54 56 57 58 59 60 61 60
43 44 43 42 42 42 40 41 40 38 35 31 30 28 27 26 26 26 24 21 23 25 24 24 25 31 36 42 48 51 49 50 51 51 52 53 52 53 54 55 55 56 57
44 44 43 43 42 39 38 37 37 36 33 30 31 28 25 24 24 21 25 29 28 27 26 27 32 37 43 46 47 48 50 51 52 53 54 54 54 54 53 55 57 56 51
43 43 41 39 39 40 41 40 38 36 35 32 29 28 27 27 25 22 21 22 24 27 30 34 38 41 44 47 48 49 50 52 53 54 55 55 55 55 56 56 51 47 43
Wind_Direction_500mb
348 331 333 259 227 232 236 233 235 237 240 241 237 234 232 229 229 228 229 236 239 224 224 231 241 243 244 246 244 222 221 227 227 217 208 199 208 229 250 265 277 280 287
329 324 311 296 293 281 250 236 236 237 240 241 244 236 232 232 234 235 238 233 220 224 230 235 238 235 237 242 224 223 240 253 234 203 197 201 214 223 234 247 263 271 281
285 283 279 287 283 270 271 273 267 258 258 247 240 242 244 242 239 238 235 235 237 245 239 240 223 231 238 229 220 236 244 235 228 220 219 231 230 235 240 249 258 268 278
277 264 263 280 291 274 269 264 250 252 252 245 247 249 249 242 236 233 230 233 228 233 227 226 229 227 228 225 227 233 233 234 238 238 238 237 238 243 246 253 259 267 275
284 263 266 280 291 293 280 264 256 248 249 249 247 243 237 237 240 234 228 226 220 233 226 224 214 221 223 225 231 223 237 225 239 244 236 241 246 255 264 273 277 282 285
289 279 282 271 276 278 278 268 254 254 250 247 244 242 240 234 237 232 229 223 225 230 224 214 210 214 218 220 224 238 235 240 237 240 245 251 258 270 269 275 283 289 295
314 304 284 288 275 271 272 268 256 245 243 242 241 242 237 236 236 230 229 227 224 223 213 211 212 216 231 235 231 230 231 238 243 248 253 262 260 262 267 275 283 291 298
314 289 295 303 301 285 264 258 253 248 246 247 245 241 232 237 233 229 225 223 217 212 213 215 223 234 234 233 232 230 232 234 244 250 255 250 254 259 269 278 288 295 296
267 264 289 301 303 297 267 250 246 242 246 247 247 239 234 230 230 230 228 214 207 208 213 227 234 231 235 241 245 243 239 245 253 253 253 257 258 266 283 289 299 301 308
278 283 295 300 303 297 269 250 243 239 238 242 248 231 229 227 224 221 221 213 207 210 218 221 224 229 229 228 231 233 236 243 248 256 264 271 275 277 278 283 290 299 306
283 284 297 307 296 282 270 250 244 238 232 228 228 227 225 223 217 213 217 216 212 211 213 214 218 220 220 220 227 239 244 245 245 250 255 260 266 273 280 284 292 298 300
274 287 294 295 272 262 259 243 235 227 224 219 218 214 213 208 210 214 216 213 211 209 209 219 221 217 212 209 226 244 251 257 259 263 261 258 265 278 290 301 303 305 308
291 294 291 279 266 255 243 242 232 222 216 210 207 196 187 193 198 205 203 198 201 207 211 211 203 200 198 210 223 251 274 263 258 251 262 274 282 300 315 310 311 309 307
291 292 286 279 263 249 242 236 229 218 207 198 191 185 182 186 189 194 197 197 201 200 197 192 192 204 213 224 240 269 255 254 257 269 285 289 298 302 306 308 305 305 306
290 283 275 268 243 237 228 226 223 219 219 202 192 189 184 187 194 198 197 197 198 199 203 198 204 212 220 234 254 240 245 259 275 281 284 292 295 295 295 298 303 307 305
274 254 237 218 201 197 188 184 194 199 194 199 190 188 188 195 195 196 195 195 198 207 200 210 217 227 237 252 238 239 252 271 279 285 288 287 284 291 297 303 307 307 307
243 216 197 192 182 178 173 167 157 159 162 169 180 183 189 185 191 190 192 198 209 209 212 222 229 239 237 231 233 244 254 276 279 284 288 286 289 296 303 307 306 308 311
205 196 189 184 176 169 165 162 162 159 158 160 166 169 176 178 181 188 196 202 204 214 219 226 222 219 232 242 243 248 259 271 276 281 284 290 297 303 305 305 308 309 310
195 190 182 177 172 167 167 168 169 168 166 162 160 166 171 177 182 193 201 201 205 206 210 214 227 234 244 243 244 252 266 271 279 286 294 298 300 301 303 305 307 307 308
190 187 181 175 170 171 174 175 175 176 175 172 171 173 173 180 183 193 198 199 205 213 222 217 216 225 235 245 254 260 273 283 290 295 298 299 299 301 303 305 305 304 304
184 182 184 178 176 174 176 179 178 177 177 178 181 186 194 198 199 205 207 213 219 208 211 220 225 238 252 263 273 283 286 291 295 297 298 297 297 299 300 300 300 300 301
187 183 182 181 179 179 182 182 182 182 185 188 189 191 197 205 209 206 204 195 186 189 204 225 246 262 270 277 281 284 290 294 295 295 296 297 298 297 296 297 299 300 301
187 184 183 184 182 181 183 185 189 192 194 196 197 193 189 186 186 185 185 186 197 215 232 243 260 261 264 276 283 291 296 297 298 300 298 297 297 297 298 298 298 300 301
187 187 187 185 181 183 187 187 188 189 187 183 183 183 186 189 192 201 206 216 221 225 241 264 265 264 277 287 293 297 299 300 299 300 302 302 300 297 297 297 299 301 302
189 189 187 186 187 190 190 189 189 191 193 193 193 192 191 194 200 213 235 247 250 254 261 264 270 278 286 292 298 299 300 301 302 303 303 302 301 302 302 301 301 300 300
189 188 191 195 197 196 196 196 199 201 202 203 203 201 201 203 206 221 233 237 246 255 260 266 273 282 288 294 298 300 301 302 303 302 302 301 300 301 301 301 301 300 300
Wind_Speed_850mb
27 36 32 43 57 49 57 63 58 57 57 56 60 62 70 74 78 72 73 66 75 72 66 58 53 55 41 46 43 48 45 40 38 41 47 40 36 29 25 23 28 33 29
6 22 37 37 29 28 45 53 59 57 56 56 57 58 61 66 67 72 72 75 71 73 72 68 64 45 43 50 45 39 40 42 44 48 46 40 33 31 29 31 36 33 33
49 37 30 37 34 33 33 32 40 53 57 62 59 59 59 60 61 60 64 65 70 75 79 73 55 59 50 56 46 47 44 43 43 45 42 42 42 38 37 38 37 36 38
46 42 33 28 33 39 37 52 49 49 61 63 65 62 61 63 61 58 60 63 63 58 52 55 56 42 53 51 47 46 46 43 40 37 40 45 39 38 38 38 41 42 42
41 43 33 29 26 28 34 54 56 58 62 65 64 68 70 67 64 62 61 59 65 57 60 55 48 55 60 51 47 40 40 39 45 38 38 38 38 38 39 39 42 43 41
37 34 40 41 36 38 42 42 48 52 61 62 66 68 73 73 66 62 57 61 63 55 55 52 59 64 57 53 52 46 48 36 35 34 35 37 39 42 47 44 44 45 42
26 35 28 28 44 50 47 50 49 59 59 57 63 66 72 72 71 64 61 57 57 54 57 64 63 57 52 46 47 43 34 37 39 37 38 41 45 42 41 39 39 39 42
29 37 40 40 43 44 54 55 56 57 60 58 61 67 69 75 72 68 60 51 50 60 64 61 54 44 43 45 42 40 39 36 39 41 38 38 34 32 31 32 36 37 39
40 46 49 50 50 47 53 67 63 57 63 59 64 69 71 75 75 70 56 52 59 65 61 53 45 44 42 41 35 34 35 31 33 34 32 30 28 28 27 33 30 35 42
43 46 50 50 54 47 50 67 63 63 67 51 57 74 75 80 76 58 50 56 65 65 53 47 42 36 33 29 29 28 28 28 28 27 27 27 27 28 26 28 30 34 36
49 42 45 49 49 44 45 63 70 69 69 71 68 72 77 73 61 49 51 54 57 52 48 43 39 33 28 23 23 22 21 25 25 26 28 28 29 26 25 29 31 31 35
52 53 55 54 45 38 44 65 72 77 78 79 74 75 68 59 50 49 47 44 44 43 42 39 32 28 24 20 16 15 15 18 21 22 23 21 22 24 25 26 29 33 42
43 47 42 39 35 35 37 53 67 73 79 79 80 74 62 57 52 44 42 41 40 38 35 31 30 26 22 19 16 15 15 16 15 14 16 16 19 23 30 36 40 49 57
45 43 34 25 20 25 31 45 61 69 72 79 67 64 62 58 53 52 48 41 37 34 32 31 25 23 19 20 18 17 14 14 15 15 17 20 23 31 41 46 53 60 64
37 31 22 17 16 21 24 33 45 56 58 56 60 53 56 58 58 50 47 43 35 30 28 29 30 31 29 25 21 20 15 16 20 21 25 30 34 40 46 51 57 60 58
27 21 16 17 17 22 28 38 34 33 33 31 31 35 48 48 51 46 39 33 30 29 32 34 33 31 29 25 22 20 20 22 26 31 35 35 38 47 53 57 59 55 59
20 18 19 22 25 30 33 36 38 26 21 22 27 34 37 39 41 40 37 34 33 35 38 35 33 33 29 26 26 28 28 30 32 33 37 43 49 54 58 59 56 62 65
19 21 26 30 30 32 33 36 37 40 41 36 30 34 33 36 38 40 38 37 37 37 32 30 27 27 24 29 28 29 31 32 35 39 43 48 53 56 58 60 63 65 67
23 28 29 32 32 33 36 39 41 44 45 46 45 40 38 36 37 36 35 27 25 22 23 24 23 27 32 34 32 29 33 36 41 46 50 54 56 59 62 64 66 62 63
29 31 34 35 36 36 36 38 41 41 42 45 47 47 47 44 42 42 30 26 25 22 23 27 28 29 30 29 26 30 37 41 46 51 56 59 60 63 66 65 64 65 64
35 37 36 37 38 37 37 39 38 38 38 37 34 33 31 31 31 28 22 17 19 22 27 31 30 26 24 25 30 36 41 46 53 57 59 61 63 65 65 65 65 65 67
38 39 38 40 40 39 40 40 40 39 37 35 35 35 32 31 31 27 23 24 22 22 25 26 23 22 25 30 36 42 47 53 56 56 58 60 61 63 64 65 65 64 63
42 44 42 41 40 39 41 40 38 37 35 34 36 38 36 32 29 29 29 27 27 26 26 26 25 27 34 38 41 47 53 54 54 54 52 54 56 57 58 59 60 61 60
43 44 43 42 42 42 40 41 40 38 35 31 30 28 27 26 26 26 24 21 23 25 24 24 25 31 36 42 48 51 49 50 51 51 52 53 52 53 54 55 55 56 57
44 44 43 43 42 39 38 37 37 36 33 30 31 28 25 24 24 21 25 29 28 27 26 27 32 37 43 46 47 48 50 51 52 53 54 54 54 54 53 55 57 56 51
43 43 41 39 39 40 41 40 38 36 35 32 29 28 27 27 25 22 21 22 24 27 30 34 38 41 44 47 48 49 50 52 53 54 55 55 55 55 56 56 51 47 43
Wind_Direction_850mb
348 331 333 259 227 232 236 233 235 237 240 241 237 234 232 229 229 228 229 236 239 224 224 231 241 243 244 246 244 222 221 227 227 217 208 199 208 229 250 265 277 280 287
329 324 311 296 293 281 250 236 236 237 240 241 244 236 232 232 234 235 238 233 220 224 230 235 238 235 237 242 224 223 240 253 234 203 197 201 214 223 234 247 263 271 281
285 283 279 287 283 270 271 273 267 258 258 247 240 242 244 242 239 238 235 235 237 245 239 240 223 231 238 229 220 236 244 235 228 220 219 231 230 235 240 249 258 268 278
277 264 263 280 291 274 269 264 250 252 252 245 247 249 249 242 236 233 230 233 228 233 227 226 229 227 228 225 227 233 233 234 238 238 238 237 238 243 246 253 259 267 275
284 263 266 280 291 293 280 264 256 248 249 249 247 243 237 237 240 234 228 226 220 233 226 224 214 221 223 225 231 223 237 225 239 244 236 241 246 255 264 273 277 282 285
289 279 282 271 276 278 278 268 254 254 250 247 244 242 240 234 237 232 229 223 225 230 224 214 210 214 218 220 224 238 235 240 237 240 245 251 258 270 269 275 283 289 295
314 304 284 288 275 271 272 268 256 245 243 242 241 242 237 236 236 230 229 227 224 223 213 211 212 216 231 235 231 230 231 238 243 248 253 262 260 262 267 275 283 291 298
314 289 295 303 301 285 264 258 253 248 246 247 245 241 232 237 233 229 225 223 217 212 213 215 223 234 234 233 232 230 232 234 244 250 255 250 254 259 269 278 288 295 296
267 264 289 301 303 297 267 250 246 242 246 247 247 239 234 230 230 230 228 214 207 208 213 227 234 231 235 241 245 243 239 245 253 253 253 257 258 266 283 289 299 301 308
278 283 295 300 303 297 269 250 243 239 238 242 248 231 229 227 224 221 221 213 207 210 218 221 224 229 229 228 231 233 236 243 248 256 264 271 275 277 278 283 290 299 306
283 284 297 307 296 282 270 250 244 238 232 228 228 227 225 223 217 213 217 216 212 211 213 214 218 220 220 220 227 239 244 245 245 250 255 260 266 273 280 284 292 298 300
274 287 294 295 272 262 259 243 235 227 224 219 218 214 213 208 210 214 216 213 211 209 209 219 221 217 212 209 226 244 251 257 259 263 261 258 265 278 290 301 303 305 308
291 294 291 279 266 255 243 242 232 222 216 210 207 196 187 193 198 205 203 198 201 207 211 211 203 200 198 210 223 251 274 263 258 251 262 274 282 300 315 310 311 309 307
291 292 286 279 263 249 242 236 229 218 207 198 191 185 182 186 189 194 197 197 201 200 197 192 192 204 213 224 240 269 255 254 257 269 285 289 298 302 306 308 305 305 306
290 283 275 268 243 237 228 226 223 219 219 202 192 189 184 187 194 198 197 197 198 199 203 198 204 212 220 234 254 240 245 259 275 281 284 292 295 295 295 298 303 307 305
274 254 237 218 201 197 188 184 194 199 194 199 190 188 188 195 195 196 195 195 198 207 200 210 217 227 237 252 238 239 252 271 279 285 288 287 284 291 297 303 307 307 307
243 216 197 192 182 178 173 167 157 159 162 169 180 183 189 185 191 190 192 198 209 209 212 222 229 239 237 231 233 244 254 276 279 284 288 286 289 296 303 307 306 308 311
205 196 189 184 176 169 165 162 162 159 158 160 166 169 176 178 181 188 196 202 204 214 219 226 222 219 232 242 243 248 259 271 276 281 284 290 297 303 305 305 308 309 310
195 190 182 177 172 167 167 168 169 168 166 162 160 166 171 177 182 193 201 201 205 206 210 214 227 234 244 243 244 252 266 271 279 286 294 298 300 301 303 305 307 307 308
190 187 181 175 170 171 174 175 175 176 175 172 171 173 173 180 183 193 198 199 205 213 222 217 216 225 235 245 254 260 273 283 290 295 298 299 299 301 303 305 305 304 304
184 182 184 178 176 174 176 179 178 177 177 178 181 186 194 198 199 205 207 213 219 208 211 220 225 238 252 263 273 283 286 291 295 297 298 297 297 299 300 300 300 300 301
187 183 182 181 179 179 182 182 182 182 185 188 189 191 197 205 209 206 204 195 186 189 204 225 246 262 270 277 281 284 290 294 295 295 296 297 298 297 296 297 299 300 301
187 184 183 184 182 181 183 185 189 192 194 196 197 193 189 186 186 185 185 186 197 215 232 243 260 261 264 276 283 291 296 297 298 300 298 297 297 297 298 298 298 300 301
187 187 187 185 181 183 187 187 188 189 187 183 183 183 186 189 192 201 206 216 221 225 241 264 265 264 277 287 293 297 299 300 299 300 302 302 300 297 297 297 299 301 302
189 189 187 186 187 190 190 189 189 191 193 193 193 192 191 194 200 213 235 247 250 254 261 264 270 278 286 292 298 299 300 301 302 303 303 302 301 302 302 301 301 300 300
189 188 191 195 197 196 196 196 199 201 202 203 203 201 201 203 206 221 233 237 246 255 260 266 273 282 288 294 298 300 301 302 303 302 302 301 300 301 301 301 301 300 300